+ View the NASA Portal
+ Center for Near-Earth Object Studies
IMPORTANT:
The SSD Announcement email list is now available. Major changes are coming in the near future, including possible hostname and/or URL changes. To be notified of such changes, subscribe to this email list.
Please visit
this page
for more details.
Don't show this message again
JPL Small-Body Database Browser
Search:
[
help
]
351580 (2005 UY352)
Classification:
Main-belt Asteroid
SPK-ID:
2351580
[
Ephemeris
|
Orbit Diagram
|
Orbital Elements
|
Mission Design
|
Physical Parameters
|
Discovery Circumstances
]
[ show orbit diagram ]
Orbital Elements at Epoch 2458600.5 (2019-Apr-27.0) TDB
Reference:
JPL 8
(heliocentric ecliptic J2000)
Element
Value
Uncertainty (1-sigma)
Units
e
.113350384342409
7.9103e-08
a
2.178765141347343
1.7861e-08
au
q
1.931801275183779
1.6529e-07
au
i
5.945626557373205
7.3428e-06
deg
node
333.9273981483068
7.6653e-05
deg
peri
29.5551569282523
8.749e-05
deg
M
99.53127096085446
4.2236e-05
deg
t
p
2458275.733590968370
(2018-Jun-06.23359097)
0.00013642
TDB
period
1174.66506880405
3.22
1.4445e-05
3.955e-08
d
yr
n
.3064703374269255
3.7686e-09
deg/d
Q
2.425729007510908
1.9886e-08
au
Orbit Determination Parameters
# obs. used (total)
191
data-arc span
4873 days (13.34 yr)
first obs. used
2005-09-29
last obs. used
2019-02-01
planetary ephem.
DE431
SB-pert. ephem.
SB431-N16
condition code
0
norm. resid. RMS
.55181
source
ORB
producer
Otto Matic
solution date
2019-Jul-14 05:35:37
Additional Information
Earth MOID
= .9301 au
Jupiter MOID
= 3.00131 au
T_jup
= 3.667
[ hide covariance matrix ]
Orbital Elements at Epoch 2456942.5 (2014-Oct-12.0) TDB
Reference:
JPL 8
(heliocentric ecliptic J2000)
Element
Value
Uncertainty (1-sigma)
Units
e
.1133743798928225
7.9311e-08
q
1.931827777408587
1.6585e-07
au
t
p
2457099.399060519097
(2015-Mar-17.89906052)
0.00013203
TDB
node
333.9740678354872
7.6561e-05
deg
peri
29.06854042380142
8.7401e-05
deg
i
5.950130160086587
7.3468e-06
deg
Orbit Determination Parameters
# obs. used (total)
191
data-arc span
4873 days (13.34 yr)
first obs. used
2005-09-29
last obs. used
2019-02-01
planetary ephem.
DE431
SB-pert. ephem.
SB431-N16
condition code
0
norm. resid. RMS
.55181
source
ORB
producer
Otto Matic
solution date
2019-Jul-14 05:35:37
Additional Information
Jupiter MOID
= 3.00131 au
T_jup
= 3.667
Orbit Covariance (6×6)
e
q
tp
node
peri
i
e
6.290262266671398E-15
-1.310729188461876E-14
-4.036672540516358E-13
8.796392112276176E-14
-5.897487455002231E-13
-9.462616779750886E-15
q
-1.310729188461876E-14
2.750567377188107E-14
1.404330211752373E-12
-1.800646160900217E-13
1.388013448462914E-12
1.863415260309199E-14
tp
-4.036672540516358E-13
1.404330211752373E-12
1.743304637285017E-8
-1.188931711209637E-11
5.567487202370134E-9
-2.909428202252174E-11
node
8.796392112276176E-14
-1.800646160900217E-13
-1.188931711209637E-11
5.861514922133E-9
-5.838611699396287E-9
-1.316092457244874E-10
peri
-5.897487455002231E-13
1.388013448462914E-12
5.567487202370134E-9
-5.838611699396287E-9
7.638928394911112E-9
1.223551563929374E-10
i
-9.462616779750886E-15
1.863415260309199E-14
-2.909428202252174E-11
-1.316092457244874E-10
1.223551563929374E-10
5.397608627896956E-11
[
Ephemeris
|
Orbit Diagram
|
Orbital Elements
|
Mission Design
|
Physical Parameters
|
Discovery Circumstances
]
Physical Parameter Table
Parameter
Symbol
Value
Units
Sigma
Reference
Notes
absolute magnitude
H
17.1
n/a
MPO460398
351580 (2005 UY352)
Discovered 2005-Oct-29 by CSS at Catalina
Reference:
20130127/Numbers.arc
Last Updated:
2013-01-31
[
Ephemeris
|
Orbit Diagram
|
Orbital Elements
|
Mission Design
|
Physical Parameters
|
Discovery Circumstances
]
2019-Dec-15 05:32 UT
(server date/time)
Site Manager:
Ryan S. Park
Webmaster
:
Alan B. Chamberlin